Date,TemperatureHighF,TemperatureAvgF,TemperatureLowF,DewpointHighF,DewpointAvgF,DewpointLowF,HumidityHigh,HumidityAvg,HumidityLow,PressureMaxIn,PressureMinIn,WindSpeedMaxMPH,WindSpeedAvgMPH,GustSpeedMaxMPH,PrecipitationSumIn
2013-2-1,21.6,17.2,14.4,11.9,4.5,0.7,66,57,54,30.40,30.22,8,4,11,0.00
2013-2-2,44.1,34.0,25.7,29.4,26.2,16.3,81,73,56,30.20,30.02,12,5,16,0.02
2013-2-3,40.3,34.7,26.6,31.9,25.5,17.3,82,69,61,30.12,29.94,9,5,14,0.01
2013-2-4,52.5,47.9,45.3,35.4,31.6,26.3,68,54,37,29.90,29.86,5,2,10,0.00
2013-2-5,59.4,53.2,44.8,40.8,35.8,26.4,71,54,30,29.97,29.89,4,2,7,0.00
2013-2-6,53.4,47.2,43.0,33.1,27.9,23.7,67,48,33,30.19,30.06,5,2,8,0.00
2013-2-7,63.3,54.0,38.3,43.5,35.6,25.5,63,50,43,30.04,29.88,8,4,14,0.00
2013-2-8,34.7,32.5,28.2,25.9,24.1,19.3,73,71,69,30.33,30.25,8,4,11,0.00
2013-2-9,50.9,46.0,38.7,28.6,26.7,25.5,65,47,38,30.30,30.09,6,3,8,0.00
2013-2-10,59.2,52.7,46.8,39.2,33.6,30.0,54,48,40,30.08,29.94,24,12,33,0.01
2013-2-11,50.4,49.2,47.8,43.2,35.5,31.1,77,60,50,30.08,29.95,7,4,9,0.00
2013-2-12,54.5,47.6,38.8,31.6,28.8,27.1,75,49,39,30.10,29.81,4,3,8,0.00
2013-2-13,44.4,37.6,34.7,35.0,31.8,28.4,89,81,53,29.78,29.72,11,6,18,0.25
2013-2-14,39.2,34.2,32.0,37.1,31.4,28.8,92,89,88,29.98,29.94,8,4,9,0.00
2013-2-15,36.9,29.2,21.9,20.7,13.7,3.4,71,54,27,30.10,30.07,8,3,12,0.00
2013-2-16,30.4,22.5,18.7,12.9,6.2,3.7,59,50,32,30.22,30.11,5,1,8,0.00
2013-2-17,43.5,38.3,33.8,16.6,14.5,12.5,49,38,28,30.22,30.09,8,4,10,0.00
2013-2-18,61.3,51.6,34.3,41.8,28.7,14.8,90,44,30,30.12,29.81,18,11,37,0.26
2013-2-19,45.3,41.7,38.3,43.4,30.6,22.6,93,66,47,30.05,29.83,9,7,16,0.09
2013-2-20,58.8,50.0,44.2,47.6,45.7,42.9,96,87,61,29.97,29.82,11,8,15,0.61
2013-2-21,60.4,47.5,36.9,43.7,36.5,30.6,80,67,50,30.00,29.90,9,4,11,0.00
2013-2-22,47.1,40.9,34.9,31.3,29.3,27.5,79,64,50,29.97,29.89,6,4,8,0.00
2013-2-23,37.0,31.0,26.4,24.4,21.5,18.1,74,68,60,30.07,29.92,4,1,8,0.00
2013-2-24,50.5,43.3,37.0,25.8,22.5,19.6,60,44,31,30.09,29.96,5,3,8,0.00
2013-2-25,59.9,48.1,35.6,46.6,29.8,19.7,84,50,35,29.98,29.40,12,6,18,0.11
2013-2-26,50.7,50.4,50.2,48.2,47.7,47.1,91,90,89,29.43,29.38,7,7,10,0.00
2013-2-27,38.5,31.3,0.0,47.8,32.6,27.7,78,60,68,29.83,29.74,7,3,10,0.27
2013-2-28,37.4,36.3,34.3,27.9,25.7,24.4,77,65,60,30.00,29.92,7,4,11,0.01